SL-16 R/B               
1 23405U 94077B   23342.81472862  .00000085  00000+0  68272-4 0  9994
2 23405  70.9826 281.2765 0004104 303.3332  56.7397 14.15346067499933
ERS-2                   
1 23560U 95021A   23342.54959306  .00083266  00000+0  81186-3 0  9999
2 23560  98.5257 338.7950 0004884  82.1957 277.9854 15.65946049536213
ARIANE 40+ R/B          
1 23561U 95021B   23342.61858039  .00000295  00000+0  11062-3 0  9996
2 23561  98.5542  45.0171 0007969  83.3321  86.3617 14.38632024501214
SL-16 R/B               
1 23705U 95058B   23342.49933183 -.00000203  00000+0 -79989-4 0  9990
2 23705  71.0222 106.1482 0014872 289.1881  70.7632 14.15273326451519
SL-16 R/B               
1 24298U 96051B   23342.52249966 -.00000139  00000+0 -48898-4 0  9998
2 24298  70.8198 113.4185 0018245 268.0872  91.8159 14.12513385405551
ORBVIEW 2 (SEASTAR)     
1 24883U 97037A   23342.39008502  .00000343  00000+0  13827-3 0  9995
2 24883  98.7481 114.7011 0001693 348.0413  12.0730 14.34276554390546
SL-16 R/B               
1 25400U 98043G   23342.80979964  .00000066  00000+0  46628-4 0  9992
2 25400  98.7252 279.5428 0008920 237.1360 122.8961 14.25675337321866
SL-16 R/B               
1 25407U 98045B   23342.55458958  .00000092  00000+0  70972-4 0  9996
2 25407  71.0106 110.2034 0008520 213.3140 146.7448 14.15953702310718
ISS (ZARYA)             
1 25544U 98067A   23343.07755144  .00026603  00000+0  46764-3 0  9994
2 25544  51.6400 182.2887 0001365  15.2823 127.3497 15.50296263428916
CZ-4B R/B               
1 25732U 99025C   23342.56137025  .00000067  00000+0  53802-4 0  9991
2 25732  98.7815  25.1296 0037303 183.4838 348.2158 14.17894006271781
OKEAN-O                 
1 25860U 99039A   23343.12540666  .00000633  00000+0  95199-4 0  9994
2 25860  98.0663  30.5891 0001973 103.9039 256.2390 14.77943707313021
SL-16 R/B               
1 25861U 99039B   23342.54440730  .00000534  00000+0  78280-4 0  9993
2 25861  98.1175  21.8519 0016127  41.5939 318.6495 14.79679952315328
DELTA 2 R/B             
1 25876U 99041E   23342.41435920  .00000643  00000+0  14790-3 0  9999
2 25876  51.7640 334.6776 0521796  89.6476 276.4204 14.07182701247042
HELIOS 1B               
1 25977U 99064A   23342.55826619  .00000681  00000+0  89147-4 0  9991
2 25977  98.2682 202.5561 0001124 142.4913 217.6379 14.83816047563191
TERRA                   
1 25994U 99068A   23343.17066786  .00000440  00000+0  10215-3 0  9996
2 25994  98.0756  47.0644 0001061 197.2651 215.4544 14.59478864275308
SL-16 R/B               
1 26070U 00006B   23342.49892986 -.00000086  00000+0 -19458-4 0  9996
2 26070  71.0037  26.3291 0017190 344.8485  15.2120 14.15589821232194
TITAN 4B R/B            
1 26474U 00047B   23342.97427581  .00002005  00000+0  16492-3 0  9992
2 26474  67.9912 174.9968 0055049 242.1603 117.3957 15.00250864269342
ENVISAT                 
1 27386U 02009A   23342.87821819  .00000125  00000+0  54486-4 0  9993
2 27386  98.2563 305.9270 0001279  82.7881 309.4334 14.38461902141077
IDEFIX & ARIANE 42P R/B 
1 27422U 02021B   23342.78291615  .00000289  00000+0  12890-3 0  9996
2 27422  98.5096 279.5272 0013271  87.4167 272.8534 14.29885657126518
AQUA                    
1 27424U 02022A   23343.11212385  .00000901  00000+0  20349-3 0  9993
2 27424  98.3081 287.1384 0001509  49.9822  71.8929 14.58644351148855
CZ-4B R/B               
1 27432U 02024C   23343.14879220  .00000054  00000+0  51343-4 0  9992
2 27432  99.0034  19.2928 0050238 190.6106 239.5982 14.14264001113182
MIDORI II (ADEOS-II)    
1 27597U 02056A   23342.85456570  .00000325  00000+0  14868-3 0  9996
2 27597  98.6698 285.6046 0000488 134.4035 225.7186 14.28116272 92948
H-2A R/B                
1 27601U 02056E   23342.52727632  .00000312  00000+0  12586-3 0  9997
2 27601  98.2096 324.3783 0072798  93.0307  19.2591 14.32562985 96341
CZ-4B R/B               
1 28059U 03049C   23342.48252332  .00000382  00000+0  10221-3 0  9994
2 28059  98.5846 294.8067 0048549 220.2447 139.5150 14.53452590 67097
CZ-2C R/B               
1 28222U 04012C   23343.15536452  .00007508  00000+0  33474-3 0  9992
2 28222  97.8082 343.4638 0037674 357.9295   2.1778 15.21083302 78038
SL-16 R/B               
1 28353U 04021B   23342.50492084 -.00000126  00000+0 -41039-4 0  9995
2 28353  71.0000 157.6046 0006508 229.2778 130.7780 14.14372158  6576
CZ-4B R/B               
1 28415U 04035C   23342.82982221  .00003555  00000+0  20061-3 0  9999
2 28415  97.4503  15.8798 0044277 327.9388  31.9151 15.12969625 55008
CZ-2C R/B               
1 28480U 04046B   23342.50132340  .00000265  00000+0  11440-3 0  9993
2 28480  98.1381 294.8610 0142222  66.5105 295.0950 14.26176500991269
ARIANE 5 R/B            
1 28499U 04049H   23342.60741121  .00001041  00000+0  12983-3 0  9996
2 28499  98.1576 111.5891 0090183 131.9478 228.9466 14.81863855 23898
CZ-2D R/B               
1 28738U 05024B   23342.55469298  .00005903  00000+0  26587-3 0  9998
2 28738  97.3597 339.6861 0011825  97.2789 262.9792 15.21372649 13499
SUZAKU (ASTRO-EII)      
1 28773U 05025A   23343.17926517  .00012997  00000+0  36878-3 0  9994
2 28773  31.3916 344.4028 0002672 140.6827 219.4020 15.34953599 17540
ALOS (DAICHI)           
1 28931U 06002A   23342.47519740  .00001152  00000+0  22436-3 0  9990
2 28931  98.0127 295.0732 0002227  67.6539 292.4900 14.64847763952900
H-2A R/B                
1 28932U 06002B   23343.15467063  .00003725  00000+0  29791-3 0  9996
2 28932  98.2247  59.3905 0079875 114.7041 246.2522 14.98390089970801
RESURS-DK 1             
1 29228U 06021A   23342.00814692  .00001730  00000+0  12561-3 0  9994
2 29228  69.9338 194.0995 0007053 294.0660  65.9764 15.05916069963379
GENESIS 1               
1 29252U 06029A   23342.53050215  .00009766  00000+0  32772-3 0  9993
2 29252  64.5186  89.1871 0003711 258.6981 101.3732 15.31361377961175
CZ-4B R/B               
1 29507U 06046C   23342.86998031  .00001852  00000+0  13056-3 0  9990
2 29507  97.6687  15.0877 0041336 206.4245 153.4874 15.05596632935917
CZ-2C R/B               
1 31114U 07010B   23342.42012809  .00000159  00000+0  92504-4 0  9996
2 31114  98.3033 125.0325 0059829 165.8689 194.4179 14.19672170863024
COSMO-SKYMED 1          
1 31598U 07023A   23343.14876707  .00000550  00000+0  75672-4 0  9993
2 31598  97.8852 164.1035 0001315  83.3963 276.7400 14.82145231892892
GENESIS 2               
1 31789U 07028A   23342.51569520  .00009340  00000+0  31855-3 0  9992
2 31789  64.4908 134.0427 0044801 238.3987 121.2765 15.29934704908037
COSMOS 2428             
1 31792U 07029A   23342.87686029  .00000399  00000+0  24112-3 0  9993
2 31792  70.9375 128.1316 0010875 307.2733  52.7395 14.12630453848104
SL-16 R/B               
1 31793U 07029B   23342.53303549  .00000296  00000+0  17921-3 0  9996
2 31793  70.9754 100.2889 0001991 256.6838 177.1109 14.14575660849098
KORONAS-FOTON           
1 33504U 09003A   23342.53671938  .00004612  00000+0  19458-3 0  9995
2 33504  82.4407  36.2096 0016527 189.1436 170.9502 15.22922281819951
CZ-2C R/B               
1 37731U 11030B   23342.50162045  .00000987  00000+0  14415-3 0  9994
2 37731  97.7384 308.8119 0058075 140.6541 335.6215 14.76749920668551
H-2A R/B                
1 38341U 12025E   23342.26992679  .00001789  00000+0  20106-3 0  9999
2 38341  98.4350 236.8454 0053483 109.0156 251.6863 14.87129389625654
CUSAT 2 & FALCON 9 R/B  
1 39271U 13055G   23342.36700850  .00025933 -41071-6  39389-3 0  9996
2 39271  80.9426 306.8617 0382253 219.3129 137.9772 15.00475392536426
SHIJIAN-16 (SJ-16)      
1 39358U 13057A   23343.14022173  .00001827  00000+0  20209-3 0  9992
2 39358  74.9731 295.3329 0019620 296.8654  63.0525 14.87863740549199
CZ-2C R/B               
1 39364U 13059B   23343.12425660  .00032223  00000+0  47313-3 0  9996
2 39364  97.0786  26.8923 0025626 169.6283 190.5506 15.55052322563291
SL-4 R/B                
1 39679U 14021B   23342.35486152  .00006290  00000+0  26213-3 0  9993
2 39679  51.6127 314.7163 0147030  41.2919 319.9063 15.15755973530630
ALOS-2                  
1 39766U 14029A   23343.18266351  .00001701  00000+0  23453-3 0  9992
2 39766  97.9235  77.5715 0001433  99.7200 260.4173 14.79473568515433
SL-27 R/B               
1 40354U 14084B   23342.84515853  .00019139  00000+0  23063-3 0  9995
2 40354  74.7309 262.1680 0024740 174.9638 185.1839 15.60330921504170
